User: anonymous   Login
Location: Unspecified
(0.0000°N, 0.0000°E)
Time: 15:42:15
(UTC+00:00)
Language:

ASTRA 1KR - Orbit

View from above orbital plane
View from above orbital plane
View from above satellite
View from above satellite

Ground track
Ground track

The orbit data is extracted from the following two-line orbital elements,

1 29055U 06012A   16145.21416946  .00000121  00000-0  00000+0 0  9993
2 29055   0.0651 311.7374 0003013  66.7335 320.0641  1.00270748 36888
Epoch (UTC): 24 May 2016 05:08:24
Eccentricity: 0.0003013
inclination: 0.0651°
perigee height: 35774 km
apogee height: 35799 km
right ascension of ascending node: 311.7374°
argument of perigee: 66.7335°
revolutions per day: 1.00270748
mean anomaly at epoch: 320.0641°
orbit number at epoch: 3688

The dashed part of the orbit path shows where the satellite is in the earth's shadow,  

DLR